Location: Ariel
(45.9570°N, 122.5700°W)
Time: 15:26:24
(UTC-07:00)

Tiros 1 - Pass Details

Date: 25 July 2019
Orbit: 631 x 664 km, 48.4° (Epoch: 24 August)

Event Time Altitude Azimuth Distance (km) Brightness Sun altitude
Rises 10:21:59 0° 192° (SSW) 2,961 10.6 45.6°
Reaches altitude 10° 10:25:10 10° 170° (S) 2,061 10.2 46.1°
Maximum altitude 10:27:56 15° 135° (SE) 1,732 10.4 46.6°
Drops below altitude 10° 10:30:42 10° 99° (E) 2,076 10.7 47.0°
Sets 10:33:55 0° 77° (ENE) 2,996 11.1 47.5°
